NORTHEAST SUFFOLK  -  Winter Weather Advisory Winter Weather Advisory        NORTHERN NASSAU  -  Winter Weather Advisory Winter Weather Advisory        NORTHWEST SUFFOLK  -  Winter Weather Advisory Winter Weather Advisory        SOUTHEAST SUFFOLK  -  Winter Weather Advisory Winter Weather Advisory        SOUTHERN NASSAU  -  Winter Weather Advisory Winter Weather Advisory        SOUTHWEST SUFFOLK  -  Winter Weather Advisory Winter Weather Advisory      

Active alerts

Northern Nassau
  Details for Northern Nassau Winter Weather Advisory
Southern Nassau
  Details for Southern Nassau Winter Weather Advisory
Northwest Suffolk
  Details for Northwest Suffolk Winter Weather Advisory
Southwest Suffolk
  Details for Southwest Suffolk Winter Weather Advisory
Northeast Suffolk
  Details for Northeast Suffolk Winter Weather Advisory
Southeast Suffolk
  Details for Southeast Suffolk Winter Weather Advisory


WXM80 ListenWXM80 Stop

You find our weather info also at:

UK Metoffice

WeatherCloud

Weather Underground

Northeastern Weather Network

AWEKAS

Citizen Weather Observer Program (CWOP)

HAMweather, WeatherForYou, PWS Weather


Weather Underground History page Text

Daily Summary for November 30, 2017 Units:  English    Metric   Both
« Previous Day
Next Day »
Daily Weekly Monthly Yearly Custom
  High: Low: Average:
Temperature: 50.6 °F 35.5 °F 43.4 °F
Dew Point: 48.4 °F 28.0 °F 36.4 °F
Humidity: 96 % 61 % 77 %
Wind Speed: 9.2 mph 0.0 mph 2 mph
Wind Gust: 13.8 mph - -
Wind:- - ESE
Pressure: 30.36 in 29.83 in -
Precipitation: 0.00 in    
Historical Graphs
 
 
Tabular Data for November 30, 2017
Time Temperature Dew Point Pressure Wind Wind Speed Wind Gust Humidity Rainfall Rate (Hourly)
00:02 42.5 °F 30.0 °F 30.32 in North 3.8 mph 6.9 mph 61 % 0.00 in
00:07 42.4 °F 30.3 °F 30.32 in North 3.6 mph 5.8 mph 62 % 0.00 in
00:17 42.2 °F 30.1 °F 30.31 in North 5.2 mph 6.0 mph 62 % 0.00 in
00:22 42.2 °F 30.1 °F 30.31 in North 1.4 mph 4.6 mph 62 % 0.00 in
00:28 42.1 °F 30.4 °F 30.32 in NNE 3.9 mph 6.9 mph 63 % 0.00 in
00:38 42.0 °F 30.7 °F 30.31 in North 6.1 mph 8.1 mph 64 % 0.00 in
00:43 41.9 °F 30.2 °F 30.30 in ENE 5.1 mph 11.5 mph 63 % 0.00 in
00:48 41.9 °F 30.6 °F 30.31 in NNE 4.3 mph 10.4 mph 64 % 0.00 in
01:03 41.9 °F 30.2 °F 30.31 in NNE 7.4 mph 10.4 mph 63 % 0.00 in
01:08 41.8 °F 30.5 °F 30.31 in North 5.7 mph 13.8 mph 64 % 0.00 in
01:13 41.9 °F 30.6 °F 30.31 in NNE 5.4 mph 11.5 mph 64 % 0.00 in
01:18 41.8 °F 30.5 °F 30.31 in NNE 7.7 mph 11.5 mph 64 % 0.00 in
01:33 41.8 °F 30.5 °F 30.31 in NNE 6.6 mph 11.0 mph 64 % 0.00 in
01:43 41.7 °F 30.4 °F 30.31 in NNE 6.4 mph 12.7 mph 64 % 0.00 in
01:48 41.7 °F 30.4 °F 30.31 in NNE 5.6 mph 11.5 mph 64 % 0.00 in
01:53 41.6 °F 30.7 °F 30.31 in ENE 3.5 mph 8.1 mph 65 % 0.00 in
01:58 41.5 °F 30.2 °F 30.30 in NNE 7.5 mph 12.7 mph 64 % 0.00 in
02:03 41.5 °F 30.6 °F 30.30 in NE 3.3 mph 8.1 mph 65 % 0.00 in
02:08 41.4 °F 30.5 °F 30.31 in North 8.2 mph 11.5 mph 65 % 0.00 in
02:13 41.3 °F 30.0 °F 30.31 in NNE 5.5 mph 10.4 mph 64 % 0.00 in
02:18 41.2 °F 29.9 °F 30.32 in NNE 2.3 mph 4.6 mph 64 % 0.00 in
02:23 41.1 °F 29.8 °F 30.32 in NNE 6.3 mph 8.1 mph 64 % 0.00 in
02:28 41.1 °F 30.2 °F 30.32 in NNE 6.4 mph 10.0 mph 65 % 0.00 in
02:33 41.0 °F 29.7 °F 30.33 in NE 5.7 mph 8.1 mph 64 % 0.00 in
02:38 40.9 °F 30.0 °F 30.33 in NNE 2.6 mph 4.0 mph 65 % 0.00 in
02:43 40.9 °F 30.0 °F 30.33 in NNE 5.5 mph 9.2 mph 65 % 0.00 in
02:49 40.7 °F 29.8 °F 30.33 in ENE 2.2 mph 4.0 mph 65 % 0.00 in
02:54 40.7 °F 30.2 °F 30.33 in NNE 1.7 mph 4.0 mph 66 % 0.00 in
02:59 40.6 °F 30.1 °F 30.33 in North 2.7 mph 5.0 mph 66 % 0.00 in
03:09 40.4 °F 29.9 °F 30.33 in NNE 3.6 mph 4.6 mph 66 % 0.00 in
03:14 40.2 °F 29.4 °F 30.33 in NNE 3.5 mph 5.8 mph 65 % 0.00 in
03:19 40.2 °F 29.4 °F 30.33 in NNE 3.1 mph 4.6 mph 65 % 0.00 in
03:24 40.1 °F 29.3 °F 30.34 in NE 3.9 mph 8.1 mph 65 % 0.00 in
03:29 40.1 °F 29.3 °F 30.33 in NNE 5.3 mph 10.4 mph 65 % 0.00 in
03:34 40.0 °F 29.6 °F 30.33 in NNE 3.4 mph 4.6 mph 66 % 0.00 in
03:39 40.0 °F 29.6 °F 30.33 in ENE 2.5 mph 5.8 mph 66 % 0.00 in
03:44 39.9 °F 29.5 °F 30.34 in East 4.8 mph 8.1 mph 66 % 0.00 in
03:54 39.8 °F 29.4 °F 30.34 in ENE 3.5 mph 5.0 mph 66 % 0.00 in
04:00 39.8 °F 29.4 °F 30.33 in ENE 3.3 mph 6.9 mph 66 % 0.00 in
04:15 39.7 °F 29.3 °F 30.34 in NE 3.8 mph 8.1 mph 66 % 0.00 in
04:20 39.7 °F 29.3 °F 30.34 in ENE 3.5 mph 5.0 mph 66 % 0.00 in
04:30 39.7 °F 28.9 °F 30.34 in ENE 1.3 mph 3.5 mph 65 % 0.00 in
04:35 39.7 °F 29.3 °F 30.34 in NE 0.8 mph 2.3 mph 66 % 0.00 in
04:40 39.6 °F 29.2 °F 30.35 in ENE 1.1 mph 3.5 mph 66 % 0.00 in
04:45 39.5 °F 29.4 °F 30.34 in ENE 3.7 mph 8.1 mph 67 % 0.00 in
05:00 39.3 °F 29.3 °F 30.34 in ENE 1.0 mph 3.5 mph 67 % 0.00 in
05:05 39.2 °F 29.2 °F 30.34 in ENE 1.6 mph 3.5 mph 67 % 0.00 in
05:10 39.2 °F 29.2 °F 30.34 in ENE 0.9 mph 3.5 mph 67 % 0.00 in
05:15 39.2 °F 29.5 °F 30.34 in NNE 2.3 mph 3.5 mph 68 % 0.00 in
05:20 39.1 °F 29.1 °F 30.35 in NE 0.6 mph 3.5 mph 67 % 0.00 in
05:26 39.0 °F 29.3 °F 30.35 in Calm     68 % 0.00 in
05:31 38.9 °F 29.2 °F 30.35 in NE 0.3 mph 2.0 mph 68 % 0.00 in
05:36 38.7 °F 29.0 °F 30.35 in Calm   1.0 mph 68 % 0.00 in
05:41 38.5 °F 29.2 °F 30.35 in Calm     69 % 0.00 in
05:46 38.2 °F 28.9 °F 30.36 in Calm   1.0 mph 69 % 0.00 in
05:56 37.6 °F 29.0 °F 30.36 in Calm   3.0 mph 71 % 0.00 in
06:01 37.2 °F 28.7 °F 30.36 in Calm     71 % 0.00 in
06:11 36.6 °F 28.4 °F 30.36 in Calm   3.0 mph 72 % 0.00 in
06:16 36.3 °F 28.5 °F 30.36 in Calm   1.0 mph 73 % 0.00 in
06:26 35.9 °F 28.4 °F 30.36 in Calm   1.0 mph 74 % 0.00 in
06:31 35.7 °F 28.2 °F 30.36 in Calm   4.0 mph 74 % 0.00 in
06:41 35.5 °F 28.0 °F 30.36 in ENE 2.0 mph 4.0 mph 74 % 0.00 in
06:46 35.6 °F 28.5 °F 30.36 in ENE 2.0 mph 4.0 mph 75 % 0.00 in
06:51 35.8 °F 28.4 °F 30.36 in ENE 2.0 mph 5.0 mph 74 % 0.00 in
07:06 37.0 °F 28.8 °F 30.35 in ENE 3.7 mph 5.0 mph 72 % 0.00 in
07:16 38.0 °F 29.8 °F 30.34 in East 4.7 mph 6.9 mph 72 % 0.00 in
07:19 38.2 °F 29.6 °F 30.34 in NE 4.8 mph 8.1 mph 71 % 0.00 in
07:24 38.5 °F 30.3 °F 30.34 in East 5.3 mph 8.1 mph 72 % 0.00 in
07:29 38.7 °F 30.1 °F 30.33 in ENE 5.6 mph 10.4 mph 71 % 0.00 in
07:34 38.9 °F 30.6 °F 30.31 in ENE 9.2 mph 12.0 mph 72 % 0.00 in
07:39 38.9 °F 30.3 °F 30.33 in East 6.3 mph 8.1 mph 71 % 0.00 in
07:44 39.0 °F 30.7 °F 30.33 in ENE 5.7 mph 9.2 mph 72 % 0.00 in
07:49 39.1 °F 31.2 °F 30.34 in ENE 5.4 mph 8.1 mph 73 % 0.00 in
07:54 39.1 °F 31.5 °F 30.35 in ENE 5.4 mph 5.8 mph 74 % 0.00 in
08:00 39.2 °F 31.6 °F 30.34 in ENE 5.2 mph 6.9 mph 74 % 0.00 in
08:05 39.3 °F 32.0 °F 30.34 in ENE 3.2 mph 6.9 mph 75 % 0.00 in
08:15 39.5 °F 32.6 °F 30.34 in ENE 4.2 mph 6.9 mph 76 % 0.00 in
08:20 39.7 °F 32.8 °F 30.35 in ENE 4.1 mph 9.2 mph 76 % 0.00 in
08:25 39.8 °F 32.8 °F 30.35 in East 0.9 mph 3.5 mph 76 % 0.00 in
08:30 40.0 °F 33.0 °F 30.35 in ESE 0.2 mph 3.5 mph 76 % 0.00 in
08:35 40.0 °F 32.7 °F 30.36 in ESE 0.2 mph 1.2 mph 75 % 0.00 in
08:40 40.1 °F 32.5 °F 30.35 in ESE 0.2 mph 1.2 mph 74 % 0.00 in
08:45 40.2 °F 32.6 °F 30.35 in Calm   1.2 mph 74 % 0.00 in
08:50 40.4 °F 32.8 °F 30.35 in ESE 0.8 mph 2.3 mph 74 % 0.00 in
09:00 40.7 °F 33.4 °F 30.33 in East 5.5 mph 6.9 mph 75 % 0.00 in
09:05 40.9 °F 33.6 °F 30.33 in East 3.0 mph 3.5 mph 75 % 0.00 in
09:15 41.1 °F 33.4 °F 30.33 in East 1.8 mph 4.6 mph 74 % 0.00 in
09:20 41.3 °F 34.0 °F 30.33 in East 1.2 mph 2.0 mph 75 % 0.00 in
09:25 41.4 °F 33.7 °F 30.32 in East 2.6 mph 5.0 mph 74 % 0.00 in
09:35 41.8 °F 33.8 °F 30.31 in East 5.5 mph 7.0 mph 73 % 0.00 in
09:40 41.9 °F 33.5 °F 30.30 in East 4.8 mph 8.1 mph 72 % 0.00 in
09:56 42.4 °F 33.7 °F 30.29 in East 6.0 mph 9.0 mph 71 % 0.00 in
10:06 42.6 °F 33.9 °F 30.29 in East 3.0 mph 7.0 mph 71 % 0.00 in
10:21 42.9 °F 33.1 °F 30.30 in Calm   3.0 mph 68 % 0.00 in
10:31 43.3 °F 33.4 °F 30.29 in Calm   2.0 mph 68 % 0.00 in
10:36 43.5 °F 33.6 °F 30.29 in Calm     68 % 0.00 in
10:41 43.7 °F 33.8 °F 30.29 in Calm   2.0 mph 68 % 0.00 in
10:46 43.9 °F 34.4 °F 30.28 in Calm   1.0 mph 69 % 0.00 in
10:51 44.1 °F 34.6 °F 30.28 in Calm     69 % 0.00 in
10:56 44.4 °F 34.9 °F 30.28 in ENE 1.0 mph 2.0 mph 69 % 0.00 in
11:01 44.5 °F 34.2 °F 30.28 in Calm     67 % 0.00 in
11:06 44.7 °F 34.4 °F 30.28 in Calm   1.0 mph 67 % 0.00 in
11:21 45.4 °F 35.1 °F 30.27 in Calm   1.2 mph 67 % 0.00 in
11:26 45.5 °F 35.5 °F 30.27 in Calm   1.0 mph 68 % 0.00 in
11:31 45.8 °F 36.2 °F 30.27 in ENE 1.0 mph 2.0 mph 69 % 0.00 in
11:36 46.0 °F 36.0 °F 30.28 in NW 1.0 mph 4.0 mph 68 % 0.00 in
11:41 46.1 °F 36.1 °F 30.27 in WNW 1.0 mph 3.0 mph 68 % 0.00 in
11:56 46.2 °F 35.8 °F 30.27 in WNW 2.0 mph 7.0 mph 67 % 0.00 in
12:01 46.2 °F 35.8 °F 30.27 in WNW 2.1 mph 3.5 mph 67 % 0.00 in
12:06 46.2 °F 35.8 °F 30.27 in WNW 2.3 mph 5.8 mph 67 % 0.00 in
12:11 46.3 °F 36.3 °F 30.27 in WNW 1.9 mph 3.5 mph 68 % 0.00 in
12:16 46.4 °F 36.8 °F 30.27 in WNW 1.6 mph 4.0 mph 69 % 0.00 in
12:26 46.6 °F 37.3 °F 30.26 in NNW 2.4 mph 4.0 mph 70 % 0.00 in
12:31 46.7 °F 38.1 °F 30.26 in North 4.4 mph 6.9 mph 72 % 0.00 in
12:36 46.6 °F 38.4 °F 30.26 in NNE 4.0 mph 5.0 mph 73 % 0.00 in
12:51 46.3 °F 38.1 °F 30.25 in North 0.7 mph 2.3 mph 73 % 0.00 in
12:56 46.2 °F 38.0 °F 30.24 in NNE 4.3 mph 5.8 mph 73 % 0.00 in
13:01 46.1 °F 38.3 °F 30.24 in NE 3.2 mph 4.0 mph 74 % 0.00 in
13:11 46.2 °F 38.7 °F 30.23 in NNE 1.4 mph 3.5 mph 75 % 0.00 in
13:16 46.2 °F 38.4 °F 30.23 in NE 1.7 mph 3.0 mph 74 % 0.00 in
13:26 46.1 °F 38.3 °F 30.22 in ENE 2.2 mph 4.6 mph 74 % 0.00 in
13:31 46.0 °F 38.2 °F 30.22 in NE 2.0 mph 3.5 mph 74 % 0.00 in
13:36 45.9 °F 38.4 °F 30.22 in ENE 1.3 mph 3.5 mph 75 % 0.00 in
13:41 46.0 °F 38.9 °F 30.21 in ENE 1.6 mph 3.5 mph 76 % 0.00 in
13:51 46.2 °F 38.4 °F 30.21 in ENE 0.3 mph 3.5 mph 74 % 0.00 in
13:56 46.1 °F 38.6 °F 30.21 in ENE 2.2 mph 5.0 mph 75 % 0.00 in
14:01 46.0 °F 38.5 °F 30.20 in ENE 2.3 mph 4.0 mph 75 % 0.00 in
14:12 46.1 °F 39.0 °F 30.19 in ENE 3.5 mph 5.8 mph 76 % 0.00 in
14:16 46.0 °F 38.9 °F 30.19 in East 4.2 mph 5.0 mph 76 % 0.00 in
14:22 45.9 °F 38.8 °F 30.18 in ENE 3.3 mph 8.1 mph 76 % 0.00 in
14:27 45.8 °F 38.7 °F 30.18 in ENE 3.4 mph 7.0 mph 76 % 0.00 in
14:32 45.6 °F 38.8 °F 30.17 in NE 4.1 mph 5.8 mph 77 % 0.00 in
14:37 45.5 °F 39.0 °F 30.17 in East 3.6 mph 5.0 mph 78 % 0.00 in
14:42 45.5 °F 39.4 °F 30.17 in ENE 3.5 mph 5.8 mph 79 % 0.00 in
14:52 45.5 °F 39.4 °F 30.17 in ENE 4.5 mph 6.9 mph 79 % 0.00 in
15:02 45.5 °F 39.7 °F 30.17 in East 3.4 mph 5.8 mph 80 % 0.00 in
15:07 45.5 °F 40.0 °F 30.17 in East 2.7 mph 4.6 mph 81 % 0.00 in
15:12 45.5 °F 40.0 °F 30.16 in East 5.0 mph 6.0 mph 81 % 0.00 in
15:17 45.6 °F 40.4 °F 30.16 in ENE 2.6 mph 4.6 mph 82 % 0.00 in
15:22 45.6 °F 40.4 °F 30.15 in East 2.3 mph 3.5 mph 82 % 0.00 in
15:27 45.5 °F 40.3 °F 30.15 in East 1.8 mph 3.5 mph 82 % 0.00 in
15:32 45.4 °F 40.5 °F 30.15 in ENE 2.6 mph 3.5 mph 83 % 0.00 in
15:47 45.3 °F 40.4 °F 30.14 in East 2.4 mph 3.5 mph 83 % 0.00 in
15:52 45.3 °F 40.4 °F 30.13 in East 0.4 mph 1.2 mph 83 % 0.00 in
15:57 45.2 °F 40.3 °F 30.13 in East 1.0 mph 2.3 mph 83 % 0.00 in
16:02 45.2 °F 40.7 °F 30.13 in East 0.8 mph 2.0 mph 84 % 0.00 in
16:07 45.2 °F 40.3 °F 30.13 in Calm   1.2 mph 83 % 0.00 in
16:12 45.1 °F 40.2 °F 30.12 in Calm   1.2 mph 83 % 0.00 in
16:32 44.9 °F 40.0 °F 30.12 in Calm     83 % 0.00 in
16:37 44.9 °F 40.0 °F 30.11 in East 0.3 mph 1.2 mph 83 % 0.00 in
16:42 44.8 °F 40.0 °F 30.11 in Calm   1.2 mph 83 % 0.00 in
16:52 44.7 °F 39.9 °F 30.11 in Calm     83 % 0.00 in
16:57 44.6 °F 39.8 °F 30.10 in Calm   1.2 mph 83 % 0.00 in
17:02 44.5 °F 39.7 °F 30.10 in Calm     83 % 0.00 in
17:07 44.5 °F 39.7 °F 30.10 in Calm     83 % 0.00 in
17:13 44.4 °F 39.6 °F 30.10 in Calm     83 % 0.00 in
17:18 44.3 °F 39.5 °F 30.10 in Calm     83 % 0.00 in
17:23 44.2 °F 39.4 °F 30.10 in Calm     83 % 0.00 in
17:28 44.1 °F 39.3 °F 30.10 in Calm   1.2 mph 83 % 0.00 in
17:33 44.0 °F 39.2 °F 30.10 in Calm     83 % 0.00 in
17:38 43.8 °F 39.3 °F 30.10 in Calm     84 % 0.00 in
17:53 43.4 °F 39.2 °F 30.09 in Calm     85 % 0.00 in
18:03 43.2 °F 39.0 °F 30.10 in Calm     85 % 0.00 in
18:08 43.1 °F 38.9 °F 30.10 in Calm     85 % 0.00 in
18:18 42.9 °F 38.7 °F 30.09 in Calm     85 % 0.00 in
18:28 42.7 °F 38.5 °F 30.09 in Calm     85 % 0.00 in
18:33 42.6 °F 38.7 °F 30.09 in Calm     86 % 0.00 in
18:38 42.5 °F 38.6 °F 30.09 in Calm     86 % 0.00 in
18:43 42.4 °F 38.5 °F 30.08 in Calm     86 % 0.00 in
18:58 42.1 °F 38.2 °F 30.08 in Calm     86 % 0.00 in
19:08 41.9 °F 38.0 °F 30.08 in Calm     86 % 0.00 in
19:13 41.7 °F 37.8 °F 30.07 in Calm     86 % 0.00 in
19:19 41.6 °F 37.7 °F 30.07 in Calm     86 % 0.00 in
19:24 41.5 °F 37.6 °F 30.07 in Calm     86 % 0.00 in
19:29 41.4 °F 37.8 °F 30.07 in Calm     87 % 0.00 in
19:39 41.2 °F 37.6 °F 30.07 in Calm     87 % 0.00 in
19:44 41.2 °F 37.9 °F 30.07 in Calm     88 % 0.00 in
19:54 41.4 °F 39.0 °F 30.07 in Calm     91 % 0.00 in
19:59 41.5 °F 39.3 °F 30.07 in Calm     92 % 0.00 in
20:04 41.8 °F 39.9 °F 30.07 in Calm     93 % 0.00 in
20:09 42.0 °F 40.1 °F 30.07 in East 0.2 mph 1.2 mph 93 % 0.00 in
20:14 42.3 °F 40.7 °F 30.06 in SE 0.8 mph 2.0 mph 94 % 0.00 in
20:19 42.5 °F 40.9 °F 30.06 in SE 2.4 mph 3.5 mph 94 % 0.00 in
20:29 44.8 °F 43.7 °F 30.06 in SSE 1.8 mph 4.0 mph 96 % 0.00 in
20:34 45.9 °F 44.8 °F 30.05 in SSE 3.4 mph 5.0 mph 96 % 0.00 in
20:39 46.7 °F 45.6 °F 30.05 in SSE 1.4 mph 4.6 mph 96 % 0.00 in
20:44 47.1 °F 45.7 °F 30.06 in South 0.3 mph 1.2 mph 95 % 0.00 in
20:59 47.9 °F 46.0 °F 30.06 in SSW 0.4 mph 2.3 mph 93 % 0.00 in
21:04 48.0 °F 46.1 °F 30.06 in Calm   1.0 mph 93 % 0.00 in
21:09 48.2 °F 46.3 °F 30.06 in SSW 1.5 mph 3.5 mph 93 % 0.00 in
21:14 48.2 °F 46.0 °F 30.06 in SSW 0.5 mph 2.3 mph 92 % 0.00 in
21:19 48.3 °F 46.1 °F 30.05 in SSW 0.4 mph   92 % 0.00 in
21:24 48.3 °F 46.1 °F 30.05 in SSW 0.6 mph 2.3 mph 92 % 0.00 in
21:29 48.4 °F 46.2 °F 30.05 in SSW 0.2 mph 1.2 mph 92 % 0.00 in
21:34 48.4 °F 45.9 °F 30.05 in SSW 1.2 mph 2.3 mph 91 % 0.00 in
21:39 48.5 °F 46.0 °F 30.05 in SSW 0.6 mph 3.5 mph 91 % 0.00 in
21:44 48.6 °F 46.1 °F 30.04 in SSW 0.2 mph   91 % 0.00 in
21:49 48.6 °F 46.1 °F 30.04 in SSW 0.1 mph   91 % 0.00 in
21:55 48.7 °F 46.2 °F 30.04 in SSW 1.4 mph 3.0 mph 91 % 0.00 in
22:00 48.8 °F 46.3 °F 30.04 in Calm   1.2 mph 91 % 0.00 in
22:05 48.9 °F 46.4 °F 30.05 in SSW 1.5 mph 3.5 mph 91 % 0.00 in
22:15 49.1 °F 46.6 °F 30.05 in SW 0.5 mph 2.3 mph 91 % 0.00 in
22:20 49.2 °F 46.7 °F 30.05 in SW 0.5 mph 2.3 mph 91 % 0.00 in
22:21 49.2 °F 46.7 °F 30.05 in SW 2.3 mph 3.5 mph 91 % 0.00 in
22:25 49.4 °F 46.9 °F 29.83 in Calm   1.2 mph 91 % 0.00 in
22:26 49.4 °F 47.2 °F 30.05 in Calm   1.2 mph 92 % 0.00 in
22:28 49.4 °F 47.2 °F 30.05 in SW 3.6 mph 5.8 mph 92 % 0.00 in
22:33 49.6 °F 47.4 °F 30.05 in SW 0.5 mph 2.0 mph 92 % 0.00 in
22:35 49.6 °F 47.1 °F 29.83 in SW 0.1 mph 2.3 mph 91 % 0.00 in
22:40 49.8 °F 47.3 °F 30.05 in WSW 0.2 mph 2.0 mph 91 % 0.00 in
22:45 49.9 °F 47.4 °F 30.05 in WSW 1.1 mph 2.3 mph 91 % 0.00 in
22:50 50.0 °F 47.5 °F 30.05 in WSW 0.1 mph 1.2 mph 91 % 0.00 in
22:55 50.1 °F 47.6 °F 30.05 in WSW 0.6 mph 2.3 mph 91 % 0.00 in
23:00 50.2 °F 47.7 °F 30.04 in Calm   2.3 mph 91 % 0.00 in
23:10 50.3 °F 47.8 °F 30.04 in Calm     91 % 0.00 in
23:15 50.3 °F 47.8 °F 30.04 in Calm     91 % 0.00 in
23:20 50.4 °F 47.6 °F 30.04 in Calm     90 % 0.00 in
23:25 50.4 °F 47.9 °F 30.04 in Calm   1.2 mph 91 % 0.00 in
23:40 50.5 °F 48.0 °F 30.03 in Calm   4.0 mph 91 % 0.00 in
23:45 50.6 °F 48.4 °F 30.03 in Calm   3.5 mph 92 % 0.00 in
23:55 50.6 °F 48.4 °F 30.03 in Calm   2.0 mph 92 % 0.00 in
Crab Meadow Weather
Compliments of Weather Underground - 2.5 mb

Script developed by  Jim McMurry - jmcmurry@mwt.net Adapted for the template by  Wim van der Kuil - Leuven-Template.eu

Astronomy: Neptune was discovered in 1846 (over 150 years ago). Since that time it has still yet to make a complete orbit around the sun, because one Neptune year lasts 165 Earth years!